PBO Station Position Time Series. Reference Frame : NAM14
Format Version,1.1.0
4-character ID,VTRU
Station name,RUTLAND
Begin Date, 2008-04-12
End Date, 2019-10-07
Release Date, 2019-10-08
Reference position, 43.6071316892 North Latitude, -72.9794218413 East Longitude, 160.28516 meters elevation,
Date, North (mm), East (mm), Vertical (mm), North Std. Deviation (mm), East Std. Deviation (mm),              Vertical Std. Deviation (mm), Quality,
2008-04-12,0.00, 0.00, 0.00, 2.06, 1.65, 7.09, repro,
2008-04-13,-0.41, 0.83, 6.39, 1.96, 1.59, 6.97, repro,
2008-04-14,0.51, 1.24, 5.70, 1.97, 1.60, 6.99, repro,
2008-04-15,0.60, 2.17, 12.39, 1.99, 1.63, 7.04, repro,
2008-04-16,-0.77, 1.58, 12.87, 2.03, 1.67, 7.10, repro,
2008-04-17,-1.03, -0.71, 6.19, 1.97, 1.59, 6.90, repro,
2008-04-18,-2.41, -1.12, 9.11, 1.96, 1.58, 6.91, repro,
2008-04-19,-3.27, -1.90, 8.31, 1.97, 1.60, 7.01, repro,
2008-04-20,-1.91, -2.42, 1.64, 1.98, 1.60, 7.04, repro,
2008-04-21,-1.97, -2.05, 3.20, 1.97, 1.59, 6.95, repro,
2008-04-22,-1.61, -2.48, 1.34, 1.98, 1.60, 7.02, repro,
2008-04-23,-1.41, -2.57, 7.47, 2.07, 1.67, 7.34, repro,
2008-04-24,0.24, -3.73, -2.64, 2.01, 1.61, 7.09, repro,
2008-04-25,-1.56, -0.98, 6.57, 1.98, 1.59, 7.03, repro,
2008-04-26,-2.04, -0.11, 7.79, 1.97, 1.64, 7.16, repro,
2008-04-27,-0.72, 0.23, 5.77, 2.02, 1.69, 7.34, repro,
2008-04-28,-1.72, 2.21, 1.33, 1.98, 1.66, 7.21, repro,
2008-04-29,0.25, 2.62, 4.95, 2.01, 1.68, 7.25, repro,
2008-04-30,0.91, 3.50, 8.44, 1.98, 1.63, 7.12, repro,
2008-05-01,-0.87, 3.25, 2.25, 1.97, 1.58, 6.94, repro,
2008-05-02,-0.22, 3.27, 5.15, 1.96, 1.58, 6.91, repro,
2008-05-03,0.63, 3.33, 2.45, 1.97, 1.59, 7.00, repro,
2008-05-04,-1.13, 1.45, 5.43, 1.96, 1.59, 6.95, repro,
2008-05-05,-1.78, 0.20, 5.11, 1.98, 1.64, 7.14, repro,
2008-05-06,-1.72, 0.17, 11.42, 1.98, 1.59, 6.97, repro,
2008-05-07,-3.28, -1.17, 13.49, 1.97, 1.59, 6.91, repro,
2008-05-08,-2.85, -4.84, 19.05, 2.01, 1.60, 7.07, repro,
2008-05-09,-1.25, -0.95, 10.84, 1.98, 1.59, 6.95, repro,
2008-05-10,-2.54, 0.90, 11.58, 1.98, 1.60, 7.00, repro,
2008-05-11,-1.56, 0.62, 13.85, 1.98, 1.59, 6.93, repro,
2008-05-12,-2.74, -0.44, 13.63, 1.98, 1.60, 7.00, repro,
2008-05-13,-0.23, 0.60, 9.06, 1.96, 1.58, 6.88, repro,
2008-05-14,-2.54, 0.11, 9.73, 1.97, 1.58, 6.92, repro,
2008-05-15,-2.96, 0.68, 9.42, 1.96, 1.59, 6.91, repro,
2008-05-16,-0.46, 0.26, 14.05, 1.97, 1.58, 6.91, repro,
2008-05-17,-1.16, 0.99, 11.42, 1.97, 1.59, 6.96, repro,
2008-05-18,-0.40, 3.48, 19.18, 1.96, 1.57, 6.85, repro,
2008-05-19,0.60, 2.59, 24.40, 1.98, 1.58, 6.92, repro,
2008-05-20,1.15, 4.38, 21.25, 1.99, 1.60, 6.99, repro,
2008-05-21,-1.55, 2.11, 20.53, 1.96, 1.60, 6.91, repro,
2008-05-22,-0.74, 3.12, 15.47, 2.00, 1.61, 7.04, repro,
2008-05-23,0.17, 2.44, 5.68, 2.00, 1.61, 7.03, repro,
2008-05-24,-0.63, 0.24, 11.57, 1.97, 1.58, 6.94, repro,
2008-05-25,-0.15, 0.76, 11.25, 1.95, 1.58, 6.86, repro,
2008-05-26,-0.58, 1.56, 9.56, 1.98, 1.59, 6.93, repro,
2008-05-27,-2.21, -8.96, 16.64, 2.03, 1.61, 7.15, repro,
2008-05-28,0.12, 0.32, 3.17, 1.97, 1.59, 6.91, repro,
2008-05-29,-0.89, 0.50, 6.83, 1.99, 1.59, 6.96, repro,
2008-05-30,-2.32, -0.95, 10.20, 1.98, 1.59, 6.96, repro,
2008-05-31,-1.62, -1.00, 8.68, 2.06, 1.65, 7.32, repro,
2008-06-01,-3.04, -0.63, 7.44, 1.99, 1.61, 7.02, repro,
2008-06-02,-0.12, -0.31, 13.30, 1.99, 1.60, 7.00, repro,
2008-06-03,0.16, 0.77, 3.53, 2.02, 1.62, 7.14, repro,
2008-06-04,-0.16, 0.08, 11.77, 2.01, 1.60, 7.01, repro,
2008-06-05,-0.59, -0.18, 14.91, 1.95, 1.58, 6.88, repro,
2008-06-06,-1.53, -0.52, 11.84, 2.07, 1.68, 7.26, repro,
2008-06-07,-1.32, 1.44, 14.68, 2.13, 1.72, 7.44, repro,
2008-06-08,-3.64, -3.88, 14.38, 2.04, 1.63, 7.12, repro,
2008-06-09,-7.02, -4.09, 12.27, 2.05, 1.64, 7.17, repro,
2008-06-10,-3.19, -6.85, 11.09, 2.09, 1.67, 7.36, repro,
2008-06-11,-4.73, -5.29, 9.40, 2.09, 1.68, 7.35, repro,
2008-06-12,-0.30, -3.43, 7.21, 2.03, 1.61, 7.08, repro,
2008-06-13,-1.73, -0.73, 4.48, 1.98, 1.59, 6.97, repro,
2008-06-14,1.13, -3.91, -0.64, 2.07, 1.74, 7.52, repro,
2008-06-15,44.38, 9.69, -97.62, 31.60, 171.96, 87.60, repro,
2008-06-18,2.02, 0.16, -1.44, 2.22, 1.80, 7.83, repro,
2008-06-19,-1.77, 0.03, 8.27, 2.04, 1.63, 7.16, repro,
2008-06-20,-0.68, 2.12, 8.99, 1.99, 1.60, 7.02, repro,
2008-06-21,-0.09, -0.60, 10.10, 2.13, 1.73, 7.66, repro,
2008-06-22,-0.73, -0.19, 15.24, 2.00, 1.61, 7.06, repro,
2008-06-23,-2.68, -1.28, 0.78, 2.02, 1.63, 7.13, repro,
2008-06-24,-0.48, -1.98, -4.21, 2.10, 1.68, 7.44, repro,
2008-06-25,0.35, -3.72, 8.57, 2.03, 1.66, 7.17, repro,
2008-06-26,-1.61, 1.20, 4.36, 2.05, 1.63, 7.21, repro,
2008-06-27,-1.72, -0.26, 13.66, 2.02, 1.62, 7.06, repro,
2008-06-28,-0.27, -2.90, 8.82, 2.07, 1.70, 7.33, repro,
2008-06-29,-2.57, -2.07, 10.41, 2.09, 1.70, 7.37, repro,
2008-06-30,0.35, -1.96, 13.38, 2.05, 1.68, 7.26, repro,
2008-07-01,-3.38, -1.27, 14.60, 2.12, 1.70, 7.34, repro,
2008-07-02,-3.99, -2.62, 12.69, 2.01, 1.62, 6.96, repro,
2008-07-03,-0.51, -1.42, 11.92, 2.01, 1.62, 7.06, repro,
2008-07-04,-2.39, -2.87, 13.56, 2.01, 1.63, 7.04, repro,
2008-07-05,-2.33, -2.94, 11.87, 1.99, 1.61, 7.00, repro,
2008-07-06,-2.48, -2.94, 8.26, 2.00, 1.60, 7.00, repro,
2008-07-07,-2.47, -3.74, 9.52, 2.01, 1.62, 7.08, repro,
2008-07-08,-3.46, -1.12, 17.92, 1.99, 1.60, 6.97, repro,
2008-07-09,-6.08, -5.58, 29.70, 2.02, 1.66, 7.20, repro,
2008-07-10,-1.84, -3.24, 14.53, 2.03, 1.69, 7.39, repro,
2008-07-11,-3.83, -2.24, 15.48, 2.00, 1.66, 7.20, repro,
2008-07-12,-1.44, -2.45, 16.77, 2.03, 1.65, 7.12, repro,
2008-07-13,-4.09, -0.27, 17.02, 2.01, 1.62, 7.07, repro,
2008-07-14,-4.04, -3.97, 29.53, 2.05, 1.66, 7.24, repro,
2008-07-15,-3.66, -3.45, 12.93, 1.97, 1.60, 6.95, repro,
2008-07-16,-4.36, -4.30, 5.39, 1.99, 1.61, 7.00, repro,
2008-07-17,-5.20, -4.47, 14.26, 2.01, 1.60, 7.02, repro,
2008-07-18,-5.49, -3.66, 10.38, 2.08, 1.70, 7.30, repro,
2008-07-19,-2.07, -0.54, -2.46, 2.36, 1.97, 8.29, repro,
2008-07-20,-0.65, -1.61, 11.41, 2.04, 1.66, 7.17, repro,
2008-07-21,-1.40, -1.15, 9.02, 2.04, 1.66, 7.15, repro,
2008-07-22,-2.55, -1.04, 14.65, 1.99, 1.61, 6.98, repro,
2008-07-23,-3.83, -0.53, 9.80, 2.09, 1.67, 7.38, repro,
2008-07-24,-4.17, 0.50, 0.52, 2.13, 1.69, 7.39, repro,
2008-07-25,-1.81, -1.24, 20.60, 2.18, 1.82, 7.72, repro,
2008-07-26,-3.93, -3.98, 17.95, 1.99, 1.61, 6.98, repro,
2008-07-27,-3.81, -1.49, 36.72, 2.02, 1.63, 7.19, repro,
2008-07-28,-4.39, -1.45, 17.83, 2.04, 1.68, 7.24, repro,
2008-07-29,-3.25, -2.24, 14.27, 2.03, 1.69, 7.23, repro,
2008-07-30,-1.97, -2.40, 12.39, 2.03, 1.67, 7.20, repro,
2008-07-31,-1.57, -3.08, 23.03, 2.09, 1.73, 7.48, repro,
2008-08-01,-2.67, -2.52, 16.09, 2.00, 1.61, 6.97, repro,
2008-08-02,-4.49, -4.10, 20.05, 2.07, 1.65, 7.20, repro,
2008-08-03,-3.52, -2.76, 6.16, 2.05, 1.66, 7.18, repro,
2008-08-04,-1.62, -1.29, 4.96, 2.07, 1.66, 7.22, repro,
2008-08-05,-3.21, -2.34, 9.31, 2.00, 1.61, 6.95, repro,
2008-08-06,-2.04, -1.42, -0.88, 2.09, 1.70, 7.36, repro,
2008-08-07,-2.42, -2.26, 17.84, 2.10, 1.66, 7.37, repro,
2008-08-08,-0.70, -0.47, 17.10, 2.17, 1.68, 7.55, repro,
2008-08-09,-2.56, -1.31, 12.62, 2.02, 1.63, 7.10, repro,
2008-08-10,-2.69, 0.70, 4.26, 2.08, 1.70, 7.41, repro,
2008-08-11,-2.58, 0.97, 4.92, 2.04, 1.64, 7.15, repro,
2008-08-12,-2.07, -0.17, 11.95, 2.03, 1.65, 7.21, repro,
2008-08-13,-3.71, -0.14, 14.40, 2.02, 1.64, 7.16, repro,
2008-08-14,-2.21, 1.44, 9.00, 2.00, 1.63, 7.07, repro,
2008-08-15,-1.63, -0.05, 6.05, 2.01, 1.63, 7.14, repro,
2008-08-16,-4.19, -2.45, 2.51, 2.07, 1.66, 7.36, repro,
2008-08-17,-5.22, -0.68, 15.80, 2.02, 1.63, 7.13, repro,
2008-08-18,-3.37, -2.49, 7.91, 2.10, 1.69, 7.56, repro,
2008-08-19,-3.03, -0.95, -2.37, 2.04, 1.65, 7.24, repro,
2008-08-20,-0.63, 0.73, 3.14, 2.01, 1.62, 7.08, repro,
2008-08-21,-4.30, -1.22, 9.23, 2.03, 1.64, 7.16, repro,
2008-08-22,-4.18, -1.64, 7.90, 2.03, 1.63, 7.13, repro,
2008-08-23,-3.67, -2.31, 10.65, 2.06, 1.66, 7.22, repro,
2008-08-24,-4.41, -3.49, 17.88, 2.05, 1.65, 7.22, repro,
2008-08-25,-4.43, -2.26, 11.09, 2.06, 1.65, 7.30, repro,
2008-08-26,-1.35, 0.65, 15.60, 2.01, 1.62, 7.07, repro,
2008-08-27,-2.99, 0.08, 12.88, 2.07, 1.64, 7.21, repro,
2008-08-28,-3.52, -0.29, 19.64, 2.11, 1.71, 7.47, repro,
2008-08-29,-4.47, -1.77, 10.31, 2.08, 1.65, 7.26, repro,
2008-08-30,-2.90, -1.22, 12.24, 2.14, 1.74, 7.56, repro,
2008-08-31,-0.89, -3.36, 6.34, 2.07, 1.64, 7.20, repro,
2008-09-01,-2.70, -1.79, 11.25, 2.11, 1.67, 7.31, repro,
2008-09-02,-3.68, -0.35, 6.38, 2.10, 1.66, 7.32, repro,
2008-09-03,-4.11, -1.46, 0.11, 2.19, 1.76, 7.61, repro,
2008-09-04,-3.24, -2.11, 20.69, 2.31, 1.86, 8.12, repro,
2008-09-05,-4.66, -4.52, 19.63, 2.12, 1.70, 7.44, repro,
2008-09-06,-5.49, -0.60, 18.76, 2.09, 1.66, 7.30, repro,
2008-09-07,-2.96, 0.44, 8.98, 2.19, 1.71, 7.50, repro,
2008-09-08,-4.08, -0.60, 17.96, 2.13, 1.67, 7.34, repro,
2008-09-09,-4.28, -2.72, 9.38, 2.12, 1.69, 7.48, repro,
2008-09-10,-2.10, -0.10, 13.55, 2.19, 1.71, 7.52, repro,
2008-09-11,-2.06, 0.65, 4.49, 2.12, 1.67, 7.30, repro,
2008-09-12,-0.77, 2.22, 12.73, 2.30, 1.79, 7.93, repro,
2008-09-13,-1.62, 1.42, 10.45, 2.12, 1.66, 7.27, repro,
2008-09-14,-0.08, 1.35, 12.01, 2.12, 1.68, 7.41, repro,
2008-09-15,-5.28, -6.80, 5.78, 2.14, 1.70, 7.47, repro,
2008-09-16,-1.77, -0.17, 12.31, 2.09, 1.67, 7.35, repro,
2008-09-17,-1.00, -0.16, 6.54, 2.10, 1.69, 7.40, repro,
2008-09-18,-2.30, 2.12, 12.11, 2.05, 1.64, 7.15, repro,
2008-09-19,-1.28, 2.00, 5.12, 2.02, 1.63, 7.07, repro,
2008-09-20,-1.85, 0.64, 6.05, 2.01, 1.64, 7.11, repro,
2008-09-21,-2.09, 1.02, 8.20, 2.06, 1.66, 7.26, repro,
2008-09-22,0.90, 1.01, 3.82, 2.05, 1.66, 7.22, repro,
2008-09-23,-0.78, 1.64, 6.39, 2.01, 1.63, 7.08, repro,
2008-09-24,-0.51, 1.24, 7.61, 2.13, 1.67, 7.32, repro,
2008-09-25,-0.75, -0.91, 9.05, 2.00, 1.62, 7.04, repro,
2008-09-26,-2.24, 2.59, 3.23, 2.03, 1.63, 7.14, repro,
2008-09-27,-2.25, 0.84, 11.49, 2.11, 1.68, 7.36, repro,
2008-09-28,-2.53, 0.47, 10.81, 2.00, 1.62, 7.05, repro,
2008-09-29,-0.27, -0.21, 14.68, 2.06, 1.65, 7.19, repro,
2008-09-30,-1.76, 0.14, 15.05, 2.01, 1.62, 7.06, repro,
2008-10-01,-1.53, 1.89, 17.33, 2.02, 1.64, 7.17, repro,
2008-10-02,-3.63, 0.34, 23.62, 2.11, 1.67, 7.31, repro,
2008-10-03,-0.46, 2.08, 9.52, 2.76, 2.07, 9.29, repro,
2008-10-05,-0.19, 3.06, 3.51, 2.70, 2.33, 9.92, repro,
2008-10-06,-0.40, 2.55, 3.30, 2.04, 1.67, 7.19, repro,
2008-10-07,0.07, 3.22, 2.08, 2.27, 1.85, 7.77, repro,
2008-10-08,0.38, 2.27, 11.05, 2.04, 1.67, 7.17, repro,
2008-10-09,0.86, 0.08, 25.35, 1.98, 1.61, 6.97, repro,
2008-10-10,-1.05, -3.52, 9.59, 1.98, 1.60, 6.97, repro,
2008-10-11,0.32, -0.26, 5.70, 1.98, 1.60, 6.98, repro,
2008-10-12,0.50, 1.37, 5.12, 1.98, 1.61, 6.99, repro,
2008-10-13,0.29, 1.85, 3.33, 1.98, 1.61, 7.00, repro,
2008-10-14,-2.13, 1.08, 14.54, 1.99, 1.60, 7.00, repro,
2008-10-15,-0.84, 0.76, 9.79, 2.03, 1.66, 7.21, repro,
2008-10-16,0.34, 2.34, 18.03, 2.03, 1.66, 7.24, repro,
2008-10-17,1.21, 2.33, 3.52, 1.99, 1.61, 6.99, repro,
2008-10-18,2.04, 3.77, 7.19, 1.98, 1.61, 6.97, repro,
2008-10-19,1.15, 4.03, 8.62, 1.98, 1.61, 6.97, repro,
2008-10-20,1.89, 4.35, 8.55, 1.98, 1.59, 6.93, repro,
2008-10-21,3.85, 3.42, 4.02, 1.97, 1.60, 6.94, repro,
2008-10-22,3.36, 4.10, 0.26, 1.98, 1.61, 6.95, repro,
2008-10-23,3.53, 4.90, 0.47, 2.04, 1.64, 7.17, repro,
2008-10-24,1.94, 3.95, 9.86, 2.04, 1.64, 7.20, repro,
2008-10-25,-1.15, 3.35, 15.47, 2.04, 1.63, 7.15, repro,
2008-10-26,0.83, 1.71, 10.48, 1.99, 1.61, 6.99, repro,
2008-10-27,-0.39, 1.93, 11.06, 1.97, 1.59, 6.90, repro,
2008-10-28,1.05, 3.74, 7.13, 2.01, 1.66, 7.17, repro,
2008-10-29,1.80, 5.35, 15.76, 2.00, 1.66, 7.18, repro,
2008-10-30,1.44, 4.67, 6.81, 1.98, 1.61, 6.96, repro,
2008-10-31,1.91, 4.64, 1.58, 1.98, 1.62, 6.97, repro,
2008-11-01,1.97, 2.71, 8.03, 2.03, 1.62, 7.08, repro,
2008-11-02,1.97, 4.11, 7.04, 2.03, 1.63, 7.13, repro,
2008-11-03,2.30, 4.82, 10.93, 2.11, 1.67, 7.33, repro,
2008-11-04,0.13, 2.68, 13.93, 2.03, 1.64, 7.08, repro,
2008-11-05,-0.85, 2.65, 8.64, 2.04, 1.63, 7.10, repro,
2008-11-06,0.73, 1.45, 7.16, 2.00, 1.61, 6.97, repro,
2008-11-07,-0.83, 1.05, 9.49, 2.04, 1.64, 7.13, repro,
2008-11-08,-0.43, 1.90, 17.62, 2.00, 1.62, 6.99, repro,
2008-11-09,-1.30, 2.69, 18.73, 1.99, 1.61, 6.97, repro,
2008-11-10,-0.23, 3.79, 15.68, 2.02, 1.63, 7.06, repro,
2008-11-11,0.84, 5.72, 12.65, 1.99, 1.60, 6.93, repro,
2008-11-12,1.17, 3.70, 5.68, 1.98, 1.60, 6.91, repro,
2008-11-13,3.09, 6.52, 8.80, 2.05, 1.64, 7.15, repro,
2008-11-14,0.87, 5.64, 10.59, 2.08, 1.66, 7.19, repro,
2008-11-15,-0.60, 4.32, 14.75, 2.03, 1.63, 7.08, repro,
2008-11-16,-1.32, 1.88, 19.42, 2.01, 1.62, 7.04, repro,
2008-11-17,0.86, 3.16, 10.83, 2.09, 1.66, 7.26, repro,
2008-11-18,3.51, 4.49, 2.48, 1.99, 1.61, 6.97, repro,
2008-11-19,4.60, 5.93, 5.55, 2.00, 1.61, 7.01, repro,
2008-11-20,5.69, 6.95, 4.15, 2.07, 1.66, 7.22, repro,
2008-11-21,4.30, 5.84, -2.19, 2.06, 1.65, 7.18, repro,
2008-11-22,4.68, 5.07, 3.19, 2.03, 1.63, 7.09, repro,
2008-11-23,5.74, 6.62, 4.02, 2.03, 1.66, 7.17, repro,
2008-11-24,5.65, 6.82, 0.56, 2.07, 1.69, 7.28, repro,
2008-11-25,3.46, 4.37, 0.78, 2.05, 1.64, 7.17, repro,
2008-11-26,2.99, 5.63, 7.08, 1.98, 1.63, 7.00, repro,
2008-11-27,1.17, 5.65, 13.88, 1.98, 1.60, 6.94, repro,
2008-11-28,2.65, 5.86, 14.08, 2.03, 1.64, 7.13, repro,
2008-11-29,2.55, 5.18, 11.79, 2.05, 1.65, 7.19, repro,
2008-11-30,3.03, 5.79, 13.71, 2.01, 1.62, 7.06, repro,
2008-12-01,0.20, 4.31, 8.77, 1.98, 1.61, 6.99, repro,
2008-12-02,1.01, 3.97, 14.77, 2.02, 1.63, 7.09, repro,
2008-12-03,1.93, 5.81, 9.38, 2.06, 1.67, 7.21, repro,
2008-12-04,2.57, 4.44, 12.61, 2.09, 1.67, 7.26, repro,
2008-12-05,3.02, 4.39, 6.57, 2.04, 1.64, 7.13, repro,
2008-12-06,3.31, 6.20, 10.48, 2.04, 1.65, 7.19, repro,
2008-12-07,4.14, 5.86, 8.54, 2.04, 1.65, 7.18, repro,
2008-12-08,5.51, 6.23, 3.27, 2.05, 1.68, 7.28, repro,
2008-12-09,6.88, 7.09, 4.10, 2.12, 1.72, 7.34, repro,
2008-12-10,-1.96, -0.65, -3.64, 2.00, 1.62, 7.04, repro,
2008-12-11,3.20, 4.74, 8.19, 2.11, 1.72, 7.40, repro,
2008-12-12,-3.69, 2.38, -17.38, 3.26, 3.20, 15.02, repro,
2008-12-14,10.18, 8.33, -69.28, 2.00, 1.63, 7.07, repro,
2008-12-15,6.49, 5.45, -57.96, 2.07, 1.67, 7.26, repro,
2008-12-16,2.81, 2.97, 4.58, 2.05, 1.67, 7.25, repro,
2008-12-17,1.74, 5.67, 6.84, 2.02, 1.62, 7.07, repro,
2008-12-18,1.94, 3.98, -0.15, 2.00, 1.63, 6.99, repro,
2008-12-19,4.07, 4.98, 1.70, 2.21, 1.90, 8.09, repro,
2008-12-20,3.15, 9.39, 2.68, 6.30, 5.67, 23.89, repro,
2008-12-21,-2.69, 4.22, -4.38, 4.02, 2.89, 12.03, repro,
2008-12-22,0.98, 3.58, -2.55, 2.64, 2.29, 9.93, repro,
2008-12-28,2.99, 0.88, -13.40, 3.24, 2.44, 10.33, repro,
2008-12-29,2.17, 2.51, 7.37, 2.06, 1.67, 7.15, repro,
2008-12-30,3.90, 3.50, 9.31, 2.10, 1.71, 7.38, repro,
2008-12-31,2.76, 5.87, 5.64, 2.00, 1.64, 7.05, repro,
2009-01-01,6.63, 6.34, 4.83, 2.02, 1.66, 7.14, repro,
2009-01-02,6.04, 9.35, 8.73, 2.03, 1.66, 7.15, repro,
2009-01-03,5.47, 7.21, 6.71, 2.03, 1.67, 7.20, repro,
2009-01-04,4.99, 6.05, 7.93, 2.02, 1.67, 7.23, repro,
2009-01-05,3.84, 4.54, 1.22, 2.06, 1.71, 7.39, repro,
2009-01-06,3.72, 3.76, 7.11, 2.02, 1.67, 7.15, repro,
2009-01-07,3.65, 6.18, 7.86, 2.00, 1.63, 7.07, repro,
2009-01-08,3.27, 5.04, 10.94, 2.06, 1.68, 7.29, repro,
2009-01-09,4.74, 4.80, 3.18, 2.14, 1.78, 7.73, repro,
2009-01-10,4.19, 6.47, 0.89, 2.00, 1.65, 7.18, repro,
2009-01-11,4.54, 7.55, -1.92, 2.01, 1.66, 7.18, repro,
2009-01-12,6.54, 5.71, -10.44, 2.22, 1.81, 7.88, repro,
2009-01-13,-2.03, 6.40, -10.69, 2.09, 1.86, 7.74, repro,
2009-01-14,-1.53, 4.40, -8.88, 2.14, 1.83, 7.76, repro,
2009-01-15,0.92, 7.08, -6.80, 1.99, 1.63, 7.06, repro,
2009-01-16,2.73, 8.22, -10.99, 2.00, 1.65, 7.12, repro,
2009-01-17,2.02, 8.14, -9.26, 2.05, 1.72, 7.36, repro,
2009-01-18,2.59, 7.79, -6.73, 2.13, 1.91, 7.89, repro,
2009-01-19,2.29, 4.05, -1.18, 2.02, 1.70, 7.27, repro,
2009-01-20,2.96, 3.10, -0.11, 2.11, 1.77, 7.65, repro,
2009-01-21,2.04, 4.56, -1.28, 2.15, 1.91, 7.94, repro,
2009-01-22,1.61, 6.37, 5.94, 2.04, 1.70, 7.33, repro,
2009-01-23,2.13, 3.72, -3.83, 2.04, 1.69, 7.22, repro,
2009-01-24,3.69, 0.30, -6.09, 2.12, 1.86, 7.76, repro,
2009-01-25,5.43, 4.96, -4.75, 2.12, 1.86, 7.78, repro,
2009-01-26,4.89, 6.33, -10.57, 2.08, 1.74, 7.60, repro,
2009-01-27,5.00, 5.78, -6.17, 2.02, 1.66, 7.17, repro,
2009-01-28,4.29, 7.64, -0.29, 1.96, 1.59, 6.87, repro,
2009-01-29,5.58, 3.71, 4.05, 1.96, 1.59, 6.87, repro,
2009-01-30,3.69, 5.41, 9.46, 1.95, 1.58, 6.81, repro,
2009-01-31,3.74, 5.17, 8.45, 1.96, 1.57, 6.82, repro,
2009-02-01,5.28, 5.48, 7.15, 1.96, 1.57, 6.83, repro,
2009-02-02,3.55, 4.04, -0.53, 1.99, 1.58, 6.90, repro,
2009-02-03,1.73, 4.52, -2.41, 2.27, 1.86, 8.11, repro,
2009-02-04,6.82, 6.55, -4.10, 2.05, 1.68, 7.28, repro,
2009-02-05,5.90, 7.06, -4.37, 1.97, 1.57, 6.86, repro,
2009-02-06,6.09, 7.67, -0.70, 1.99, 1.63, 7.07, repro,
2009-02-07,5.04, 7.67, -3.24, 1.97, 1.57, 6.86, repro,
2009-02-08,3.27, 2.45, -3.70, 1.97, 1.59, 6.90, repro,
2009-02-09,2.26, 4.81, -4.66, 1.97, 1.58, 6.88, repro,
2009-02-10,3.31, 6.01, 1.49, 1.98, 1.60, 6.95, repro,
2009-02-11,1.64, 3.03, 13.25, 2.04, 1.59, 6.92, repro,
2009-02-12,2.33, 3.16, 10.71, 2.08, 1.63, 7.15, repro,
2009-02-13,4.49, 2.77, -0.78, 1.97, 1.58, 6.86, repro,
2009-02-14,3.97, 5.92, -1.69, 1.97, 1.58, 6.86, repro,
2009-02-15,3.34, 5.27, -2.48, 2.01, 1.60, 6.93, repro,
2009-02-16,3.03, 4.88, 0.13, 2.01, 1.59, 6.91, repro,
2009-02-17,4.53, 4.43, -1.65, 2.05, 1.62, 7.08, repro,
2009-02-18,2.06, 4.75, 5.03, 2.07, 1.65, 7.12, repro,
2009-02-19,1.37, 4.92, 4.96, 2.06, 1.60, 6.99, repro,
2009-02-20,1.60, 5.71, 7.22, 2.06, 1.64, 7.04, repro,
2009-02-21,1.76, 5.51, 8.83, 2.18, 1.71, 7.26, repro,
2009-02-22,0.21, 4.91, -6.22, 2.08, 1.64, 7.10, repro,
2009-02-23,0.65, 5.80, 1.34, 2.07, 1.64, 7.07, repro,
2009-02-24,4.07, 5.45, -4.73, 2.08, 1.65, 7.13, repro,
2009-02-25,-0.16, 7.13, -2.07, 55.88, 19.97, 339.25, repro,
2009-02-26,-1.51, 6.08, 3.72, 2.14, 1.67, 7.20, repro,
2009-02-27,-0.12, 1.74, 0.66, 2.45, 1.82, 7.85, repro,
2009-02-28,1.43, 1.34, 4.29, 2.15, 1.67, 7.11, repro,
2009-03-01,2.96, 5.07, -4.61, 2.20, 1.73, 7.31, repro,
2009-03-02,4.61, 5.41, -5.09, 2.08, 1.64, 7.08, repro,
2009-03-03,4.23, 7.18, 0.55, 2.09, 1.69, 7.26, repro,
2009-03-04,4.65, 7.80, 2.16, 2.04, 1.60, 6.96, repro,
2009-03-05,2.71, 4.56, 0.40, 2.21, 1.71, 7.32, repro,
2009-03-06,1.13, 1.90, 13.86, 2.30, 1.77, 7.60, repro,
2009-03-07,1.01, 3.03, -1.57, 2.09, 1.61, 7.07, repro,
2009-03-08,1.23, 0.68, 3.08, 2.07, 1.64, 7.08, repro,
2009-03-09,-0.70, 2.42, -5.33, 2.22, 1.72, 7.36, repro,
2009-03-10,-0.62, 3.39, -1.91, 2.03, 1.59, 6.91, repro,
2009-03-11,0.77, 2.11, 7.70, 2.02, 1.60, 6.97, repro,
2009-03-12,4.05, 1.84, -1.42, 2.07, 1.63, 7.03, repro,
2009-03-13,2.65, 4.32, -1.25, 2.21, 1.73, 7.35, repro,
2009-03-14,1.99, 3.21, 1.92, 2.14, 1.68, 7.27, repro,
2009-03-15,1.88, 3.23, 2.93, 1.98, 1.57, 6.81, repro,
2009-03-16,1.41, 2.43, 4.82, 2.10, 1.63, 7.07, repro,
2009-03-17,0.97, 1.83, 5.40, 1.98, 1.58, 6.83, repro,
2009-03-18,0.80, 1.25, 2.64, 1.98, 1.58, 6.84, repro,
2009-03-19,0.37, 0.13, -0.73, 2.00, 1.58, 6.89, repro,
2009-03-20,1.49, 2.46, -2.10, 1.99, 1.58, 6.84, repro,
2009-03-21,2.40, 3.60, -4.72, 1.98, 1.57, 6.81, repro,
2009-03-22,1.22, 2.63, 5.08, 1.99, 1.58, 6.82, repro,
2009-03-23,4.07, 3.83, -2.07, 1.98, 1.58, 6.80, repro,
2009-03-24,5.00, 4.20, -0.25, 1.98, 1.58, 6.80, repro,
2009-03-25,1.78, 3.43, 3.61, 1.99, 1.58, 6.83, repro,
2009-03-26,-0.44, 2.91, 6.52, 2.00, 1.59, 6.88, repro,
2009-03-27,-0.15, 2.47, 4.40, 2.01, 1.59, 6.93, repro,
2009-03-28,0.43, 1.12, 11.92, 2.01, 1.61, 6.96, repro,
2009-03-29,-0.65, 1.26, 10.25, 2.02, 1.62, 7.04, repro,
2009-03-30,0.10, 1.75, 13.21, 2.01, 1.60, 6.95, repro,
2009-03-31,1.47, 2.80, 7.96, 2.01, 1.61, 6.98, repro,
2009-04-01,1.16, 2.46, 10.14, 2.01, 1.61, 6.95, repro,
2009-04-02,0.32, 2.41, 13.86, 2.05, 1.66, 7.18, repro,
2009-04-03,-0.39, 1.43, 14.72, 2.05, 1.65, 7.15, repro,
2009-04-04,-0.84, 2.38, 6.01, 2.01, 1.61, 6.98, repro,
2009-04-05,1.16, 2.14, 7.19, 2.01, 1.60, 6.97, repro,
2009-04-06,1.05, 2.57, 10.55, 2.02, 1.62, 7.03, repro,
2009-04-07,0.08, 3.77, 16.09, 2.01, 1.60, 6.96, repro,
2009-04-08,0.87, 4.16, 20.18, 2.01, 1.60, 6.97, repro,
2009-04-09,-0.63, 3.83, 22.32, 2.00, 1.60, 6.95, repro,
2009-04-10,2.10, -0.34, 4.13, 2.01, 1.61, 7.01, repro,
2009-04-11,-0.24, 0.57, 10.00, 2.00, 1.61, 6.97, repro,
2009-04-12,0.97, 2.23, 1.74, 2.01, 1.61, 6.99, repro,
2009-04-13,2.18, 2.27, 5.42, 2.02, 1.59, 6.97, repro,
2009-04-14,0.16, 0.91, 6.22, 2.00, 1.60, 6.94, repro,
2009-04-15,0.07, 0.61, 9.10, 2.01, 1.60, 6.95, repro,
2009-04-16,-0.05, 0.20, 3.70, 2.01, 1.60, 6.97, repro,
2009-04-17,-1.07, -0.65, 8.01, 2.00, 1.61, 6.96, repro,
2009-04-18,-0.39, 0.68, 8.34, 2.01, 1.60, 6.99, repro,
2009-04-19,-1.73, 1.26, 3.31, 2.01, 1.61, 7.00, repro,
2009-04-20,-1.25, 1.76, 11.66, 2.02, 1.60, 6.98, repro,
2009-04-21,-2.35, 1.69, 13.30, 2.03, 1.62, 7.08, repro,
2009-04-22,-3.81, 0.47, 20.34, 2.01, 1.61, 6.99, repro,
2009-04-23,-1.42, 0.97, 9.03, 2.02, 1.65, 7.18, repro,
2009-04-24,1.02, 0.37, 9.49, 2.04, 1.65, 7.24, repro,
2009-04-25,-2.72, -0.60, 2.06, 2.02, 1.62, 7.07, repro,
2009-04-26,-2.14, -4.71, -3.16, 2.05, 1.62, 7.13, repro,
2009-04-27,0.03, -3.58, -3.90, 2.06, 1.61, 7.09, repro,
2009-04-28,-4.57, -6.83, 1.75, 2.02, 1.61, 7.02, repro,
2009-04-29,-1.94, -1.01, 2.07, 2.09, 1.64, 7.26, repro,
2009-04-30,-2.70, 0.27, 0.08, 2.10, 1.64, 7.32, repro,
2009-05-01,-1.84, -3.69, 7.20, 2.04, 1.61, 7.07, repro,
2009-05-02,-1.30, -2.23, 3.51, 2.03, 1.60, 7.03, repro,
2009-05-03,-1.17, -0.85, 12.06, 2.01, 1.60, 7.00, repro,
2009-05-04,-1.62, 0.56, 7.86, 2.00, 1.60, 6.94, repro,
2009-05-05,-0.44, -1.12, 9.97, 2.01, 1.61, 7.00, repro,
2009-05-06,0.09, -0.41, 0.74, 2.02, 1.60, 7.02, repro,
2009-05-07,-1.12, 0.26, 7.43, 2.02, 1.60, 7.01, repro,
2009-05-08,-0.15, -0.22, 7.13, 2.02, 1.62, 7.04, repro,
2009-05-09,-1.14, -0.92, 12.43, 2.04, 1.66, 7.18, repro,
2009-05-10,0.33, -0.76, 5.87, 2.01, 1.60, 6.98, repro,
2009-05-11,1.41, 0.58, -1.75, 2.02, 1.61, 7.02, repro,
2009-05-12,-0.65, -0.73, 0.87, 2.04, 1.64, 7.10, repro,
2009-05-13,-0.01, -0.69, -2.90, 2.01, 1.60, 6.96, repro,
2009-05-14,-1.13, -0.03, 0.99, 2.02, 1.62, 7.06, repro,
2009-05-15,1.58, -0.26, 3.83, 2.01, 1.60, 6.95, repro,
2009-05-16,-0.79, -0.96, 0.44, 2.02, 1.62, 7.08, repro,
2009-05-17,0.71, -0.24, -1.76, 2.02, 1.61, 7.04, repro,
2009-05-18,-0.04, 0.34, 3.39, 2.02, 1.60, 6.93, repro,
2009-05-19,0.39, 0.20, -1.49, 2.07, 1.63, 7.12, repro,
2009-05-20,-0.33, 1.11, 7.52, 2.01, 1.61, 7.02, repro,
2009-05-21,-1.01, -0.39, 12.18, 2.00, 1.59, 6.91, repro,
2009-05-22,-0.61, -3.62, 3.62, 2.02, 1.59, 6.95, repro,
2009-05-23,-0.70, -1.25, -0.75, 2.02, 1.60, 6.99, repro,
2009-05-24,-1.04, -0.30, 13.48, 2.01, 1.59, 6.96, repro,
2009-05-25,-1.09, -2.41, 9.30, 2.02, 1.61, 7.02, repro,
2009-05-26,-1.22, -0.72, 3.57, 2.01, 1.60, 6.97, repro,
2009-05-27,-0.12, 1.96, -2.44, 2.11, 1.65, 7.07, repro,
2009-05-28,-0.61, 1.86, 2.12, 2.02, 1.59, 6.97, repro,
2009-05-29,1.60, 4.47, 10.61, 2.01, 1.60, 6.95, repro,
2009-05-30,-1.22, 0.83, 8.98, 2.09, 1.68, 7.25, repro,
2009-05-31,0.22, -3.05, 10.51, 2.03, 1.62, 7.04, repro,
2009-06-01,0.48, 0.03, 8.08, 2.01, 1.60, 6.95, repro,
2009-06-02,1.76, -5.54, 9.01, 2.03, 1.60, 6.98, repro,
2009-06-03,-2.04, -0.15, 10.52, 2.02, 1.59, 6.94, repro,
2009-06-04,-0.01, 0.71, 3.03, 2.03, 1.61, 7.01, repro,
2009-06-05,-0.92, -1.84, 5.72, 2.04, 1.60, 7.03, repro,
2009-06-06,-1.14, -3.66, 5.93, 2.10, 1.64, 7.21, repro,
2009-06-07,-1.62, -2.79, 3.01, 2.03, 1.60, 7.00, repro,
2009-06-08,-1.49, -0.66, 8.00, 2.03, 1.60, 6.98, repro,
2009-06-09,-0.35, -0.34, 2.90, 2.02, 1.59, 6.94, repro,
2009-06-10,-2.00, -0.10, 9.81, 2.04, 1.62, 7.07, repro,
2009-06-11,0.73, -2.56, 4.91, 2.05, 1.61, 7.05, repro,
2009-06-12,-0.15, -0.97, 4.75, 2.03, 1.60, 6.96, repro,
2009-06-13,-0.89, -1.25, 6.89, 2.08, 1.64, 7.15, repro,
2009-06-14,-0.43, -2.85, 11.33, 2.05, 1.60, 7.00, repro,
2009-06-15,0.75, 0.01, 7.98, 2.05, 1.60, 7.02, repro,
2009-06-16,-1.04, -1.66, 9.23, 2.04, 1.61, 7.03, repro,
2009-06-17,-1.45, -1.82, 5.97, 2.05, 1.60, 7.02, repro,
2009-06-18,-2.48, -0.53, 3.92, 2.04, 1.61, 7.02, repro,